Wind_Speed
17 18 19 20 22 24 25 26 27 27 25 25 24 23 23 22 20 20 18 17 16 15 15 14 14 15 15 16 16 17 17 17 17 16 16 16 15 15 14 13 12 11 10
15 15 17 18 19 21 23 25 26 27 26 26 26 25 24 24 22 21 20 19 17 16 15 15 15 15 15 16 17 17 17 18 17 17 17 17 16 16 15 14 13 12 11
12 13 14 15 17 19 20 23 25 26 26 26 26 26 25 24 24 23 22 20 19 18 17 16 16 16 16 17 17 17 17 18 18 17 17 17 17 17 16 15 14 13 12
9 10 11 13 15 17 18 21 24 25 25 26 26 26 26 26 25 24 24 22 21 20 18 17 16 16 17 17 18 17 17 18 18 17 17 17 17 17 17 16 15 15 14
8 8 9 11 12 14 15 17 21 24 24 25 26 26 26 26 27 25 24 24 22 21 20 19 18 17 17 18 18 18 18 18 18 18 18 17 17 17 17 17 16 15 14
8 6 7 8 9 11 13 15 18 21 22 23 23 23 25 26 26 26 26 26 25 23 21 20 20 19 18 18 19 18 18 18 18 18 18 18 18 18 18 17 16 16 15
9 7 5 6 6 8 10 13 16 19 20 21 22 22 23 24 25 26 26 26 26 25 24 23 22 20 20 20 20 20 20 19 19 19 19 19 19 19 18 18 17 17 16
9 7 6 4 4 6 8 10 13 15 18 20 20 21 22 23 24 26 26 26 26 27 27 26 24 23 22 22 22 21 21 21 20 20 20 20 20 20 19 19 18 17 17
11 9 6 4 2 2 4 7 10 13 15 17 19 20 22 23 24 25 26 26 26 26 27 27 26 25 25 24 23 23 23 23 22 22 21 21 21 20 20 20 20 19 18
12 10 8 6 4 1 1 4 6 9 12 15 17 19 20 22 23 24 25 26 25 26 27 27 28 28 27 27 26 25 25 25 24 24 23 23 22 22 22 22 21 21 20
13 12 10 8 6 3 1 1 3 6 8 11 14 16 18 20 22 23 24 25 26 26 27 27 28 29 29 29 30 29 28 28 27 27 26 25 25 25 25 24 23 23 22
13 12 11 10 8 6 3 1 1 3 6 8 11 13 16 18 20 21 22 23 24 25 26 27 28 30 30 30 31 31 31 31 30 30 29 28 28 27 27 27 26 25 24
13 12 12 11 9 7 5 3 1 1 3 6 9 11 14 16 18 20 21 22 23 24 26 28 29 30 31 32 32 33 33 33 33 32 32 32 31 31 30 30 29 28 28
13 12 12 11 10 9 7 5 3 2 2 5 7 10 12 15 17 19 20 21 22 23 25 27 28 29 31 33 33 34 35 34 34 35 35 35 34 34 33 33 32 31 31
12 12 12 11 10 9 8 6 5 3 2 3 5 8 10 12 15 17 19 21 22 24 24 26 28 29 31 32 34 35 36 36 37 37 37 37 37 37 36 36 35 35 35
11 11 11 11 10 9 8 7 6 5 3 2 2 4 7 9 11 13 15 17 20 22 24 26 27 29 30 31 33 34 36 37 38 39 40 40 40 40 40 40 40 39 39
10 10 10 10 10 9 8 8 7 6 5 4 3 3 4 6 8 10 12 14 16 19 21 23 25 27 29 30 32 34 36 38 39 40 41 42 43 43 43 43 43 43 43
10 10 10 9 9 9 8 7 7 6 5 5 4 3 3 4 7 9 10 12 14 16 18 20 22 24 26 28 31 33 35 37 39 40 42 43 44 44 44 44 44 45 46
10 10 10 9 9 9 8 8 7 6 6 5 5 4 3 4 6 8 9 11 13 15 16 18 21 23 24 26 28 31 33 35 38 40 42 43 44 45 46 47 46 47 48
11 11 11 10 10 9 9 9 8 7 7 6 6 5 5 5 6 7 8 10 12 13 15 17 18 21 23 24 26 28 30 32 35 38 41 43 44 45 46 47 48 48 49
12 12 12 11 11 11 10 10 9 9 8 8 7 7 7 7 7 8 9 10 11 13 14 16 17 19 21 23 25 27 28 29 31 33 36 39 42 44 45 46 47 48 49
13 13 12 12 12 12 12 11 11 11 10 10 9 9 9 9 9 10 10 11 11 13 14 15 16 17 19 20 22 24 26 27 29 31 33 36 38 40 42 43 44 46 48
13 13 13 13 13 13 12 12 12 12 12 11 11 11 11 11 12 12 12 13 13 14 14 15 16 17 18 20 21 22 23 25 27 28 30 32 35 37 39 40 41 43 44
13 14 14 14 14 13 13 13 13 13 13 13 13 13 13 13 13 14 14 14 15 15 16 16 17 18 19 20 21 22 23 24 26 27 28 29 32 34 36 38 40 41 41
14 14 14 15 14 14 14 14 14 14 14 14 14 14 14 14 15 15 15 16 16 16 17 17 18 18 19 20 21 22 23 24 25 26 27 27 29 30 32 35 37 39 40
14 15 15 15 15 15 15 15 15 16 16 16 16 16 16 16 16 17 17 17 17 18 18 18 19 19 20 20 21 22 23 24 25 26 26 26 27 28 29 32 34 36 37
Wind_Direction
275 266 260 257 252 248 244 240 239 237 234 231 228 226 223 221 223 221 217 214 213 212 211 209 210 205 203 203 200 202 203 205 205 206 205 204 204 204 203 203 205 204 204
278 269 262 258 254 249 244 238 235 233 233 230 227 224 221 221 221 223 216 214 214 212 209 209 208 206 204 201 200 202 201 204 207 206 206 207 208 207 206 207 208 209 211
285 271 263 258 255 250 243 238 232 231 231 227 223 222 221 222 222 220 215 215 214 214 211 210 210 208 206 203 201 201 201 204 206 206 208 210 209 209 210 211 211 213 213
299 280 266 260 255 250 242 237 233 230 229 225 220 219 221 221 220 218 217 216 215 214 214 213 213 210 208 205 201 202 203 205 205 207 210 211 210 211 213 213 214 215 215
316 292 275 264 256 249 241 235 231 231 230 227 222 220 220 220 221 219 218 217 216 215 215 215 215 211 210 207 205 205 206 207 208 210 212 212 212 214 214 214 216 216 216
336 313 290 273 260 248 238 230 227 227 228 227 224 221 219 220 221 220 219 220 219 217 217 217 216 214 213 211 210 210 210 211 211 213 215 215 214 215 213 214 215 216 218
352 336 313 289 267 249 238 230 227 224 225 224 224 225 222 221 221 219 219 219 219 219 219 219 216 217 217 216 215 216 216 214 215 216 218 218 218 216 216 217 218 219 218
5 356 343 320 286 256 239 229 225 224 225 225 226 228 227 225 223 222 221 221 221 221 221 222 222 220 220 220 220 221 220 219 219 218 218 219 220 219 219 220 219 219 220
16 14 10 1 336 265 239 228 223 223 225 226 226 226 226 228 227 225 224 224 224 224 225 225 224 223 222 223 224 225 223 222 222 220 220 221 223 223 222 222 221 223 224
22 22 21 21 21 15 236 224 222 224 224 224 225 226 226 226 227 227 227 225 226 226 226 228 227 225 225 225 226 226 226 225 225 224 224 225 226 226 225 225 225 226 227
26 28 30 31 34 38 48 205 215 224 228 224 224 225 224 223 224 226 227 227 229 229 230 231 231 229 228 229 229 229 229 228 229 229 228 228 228 229 229 229 229 231 232
25 28 31 33 36 40 44 72 199 221 229 230 227 226 225 223 225 226 226 227 230 231 232 233 233 233 232 232 232 232 233 233 233 233 233 232 233 233 233 232 233 235 236
27 29 31 33 35 37 38 40 23 267 242 233 230 228 228 227 228 227 228 229 230 233 235 237 237 236 234 234 235 234 234 235 235 235 236 236 236 237 237 235 236 238 239
26 28 30 32 34 37 39 40 32 349 280 249 239 234 232 230 231 232 232 232 232 234 237 238 239 239 238 237 238 237 237 238 238 238 239 239 239 240 240 239 239 239 241
24 26 28 29 31 33 37 38 35 20 344 280 248 240 237 236 234 236 236 236 237 238 239 239 240 241 240 240 241 241 240 241 241 240 240 241 241 242 242 242 242 242 243
20 22 24 26 28 28 30 31 30 23 12 338 273 248 241 238 235 236 237 239 241 243 243 243 243 244 243 242 243 242 242 243 243 243 242 243 244 244 244 244 244 245 245
12 15 16 18 20 22 23 23 23 21 17 9 341 285 254 241 239 239 242 244 246 248 247 246 245 245 245 244 243 244 246 246 246 245 244 245 245 245 246 246 246 246 247
2 3 4 6 8 11 12 11 10 9 7 2 352 325 274 250 247 247 249 249 250 251 250 250 248 248 248 247 246 247 248 247 247 247 247 247 247 247 247 247 248 248 247
350 350 350 350 351 353 354 355 353 353 351 349 344 334 310 278 261 256 255 255 254 254 254 253 252 250 251 250 250 250 250 250 249 249 248 248 248 248 248 249 249 249 248
343 341 339 338 337 337 338 337 336 334 333 332 332 325 311 297 281 273 266 263 261 260 259 258 258 256 256 256 255 255 255 254 253 252 249 249 249 250 250 250 251 251 251
341 338 335 332 329 327 325 324 322 320 318 316 314 313 307 298 290 282 276 273 270 268 265 264 263 262 260 260 260 260 260 259 258 257 254 251 251 252 253 253 253 253 253
342 339 334 330 327 324 320 318 315 312 310 309 308 306 303 298 292 286 280 278 276 273 269 268 267 266 264 263 264 262 262 262 262 261 260 258 255 254 254 254 254 255 255
342 340 336 332 328 323 319 316 313 310 307 305 304 304 302 298 294 290 286 281 278 277 275 273 271 269 267 265 265 264 262 263 264 264 263 262 260 259 258 256 256 257 256
339 338 336 333 329 325 320 317 314 311 308 306 304 302 300 297 294 292 289 286 284 281 279 278 276 274 271 268 267 267 265 266 266 265 265 265 264 262 261 260 259 258 257
335 335 334 332 329 326 322 317 314 311 308 305 303 301 299 297 294 292 289 288 286 285 283 281 281 279 277 274 272 270 270 269 269 268 267 266 265 264 263 262 261 259 258
330 331 331 330 329 325 322 318 314 311 308 305 302 300 298 295 293 292 290 288 287 285 283 282 281 280 279 277 275 273 272 272 272 271 270 269 268 266 265 265 264 262 261
Height
5800 5799 5799 5800 5801 5802 5805 5807 5811 5814 5817 5820 5824 5827 5831 5834 5837 5839 5842 5845 5847 5849 5850 5852 5854 5856 5858 5860 5863 5865 5868 5870 5872 5875 5877 5879 5882 5884 5886 5888 5889 5891 5892
5796 5795 5795 5796 5796 5797 5800 5802 5805 5809 5812 5816 5819 5823 5826 5829 5833 5836 5839 5841 5844 5846 5848 5850 5852 5854 5856 5858 5861 5863 5866 5868 5871 5873 5876 5878 5880 5883 5885 5886 5888 5890 5891
5792 5791 5791 5791 5792 5793 5795 5797 5800 5804 5807 5810 5814 5818 5822 5825 5829 5832 5835 5838 5841 5844 5846 5848 5850 5852 5854 5857 5859 5862 5864 5867 5869 5872 5874 5876 5879 5881 5883 5885 5887 5889 5890
5789 5788 5788 5788 5788 5789 5791 5793 5796 5799 5802 5806 5809 5813 5817 5821 5824 5828 5831 5834 5838 5841 5843 5846 5848 5850 5853 5855 5857 5860 5862 5865 5867 5870 5872 5874 5877 5879 5881 5883 5885 5887 5889
5787 5786 5785 5785 5785 5786 5787 5789 5792 5795 5798 5801 5805 5808 5812 5816 5819 5824 5827 5831 5834 5837 5840 5843 5846 5848 5851 5853 5856 5858 5860 5863 5865 5868 5870 5872 5875 5877 5879 5882 5884 5885 5887
5786 5784 5783 5783 5782 5783 5784 5786 5788 5791 5794 5797 5801 5804 5808 5812 5815 5819 5823 5827 5830 5834 5837 5840 5843 5846 5848 5851 5854 5856 5858 5861 5863 5866 5868 5870 5873 5875 5877 5879 5882 5883 5885
5786 5784 5782 5781 5780 5780 5781 5783 5785 5788 5791 5794 5797 5800 5804 5807 5811 5815 5818 5822 5826 5830 5833 5836 5839 5842 5845 5848 5851 5854 5856 5859 5861 5863 5866 5868 5870 5873 5875 5877 5879 5881 5883
5786 5783 5781 5780 5779 5779 5779 5781 5783 5785 5788 5791 5794 5797 5800 5804 5807 5810 5814 5817 5821 5825 5829 5832 5836 5839 5842 5845 5848 5851 5853 5856 5858 5861 5863 5865 5868 5870 5872 5875 5877 5879 5881
5786 5783 5781 5780 5779 5778 5778 5779 5780 5783 5785 5788 5790 5793 5796 5800 5803 5806 5810 5813 5817 5821 5824 5828 5831 5835 5838 5841 5844 5847 5850 5852 5855 5858 5860 5862 5865 5867 5869 5872 5874 5876 5878
5787 5784 5782 5780 5779 5778 5778 5778 5779 5781 5783 5785 5787 5789 5792 5795 5798 5802 5805 5809 5812 5816 5819 5823 5826 5830 5833 5836 5839 5842 5845 5848 5851 5854 5856 5859 5861 5864 5866 5868 5870 5873 5875
5788 5786 5783 5781 5779 5779 5778 5778 5779 5780 5781 5782 5784 5786 5789 5791 5794 5797 5801 5804 5807 5811 5814 5817 5821 5825 5828 5831 5834 5838 5841 5844 5847 5850 5852 5855 5857 5860 5862 5864 5867 5869 5871
5790 5787 5785 5782 5781 5779 5779 5778 5778 5779 5780 5780 5782 5784 5786 5788 5790 5793 5796 5799 5802 5806 5809 5812 5815 5819 5822 5825 5829 5832 5835 5839 5842 5844 5847 5850 5852 5855 5857 5860 5862 5864 5866
5791 5788 5786 5784 5782 5780 5779 5778 5778 5778 5779 5779 5780 5781 5783 5785 5787 5789 5792 5795 5797 5801 5803 5806 5809 5812 5815 5819 5822 5825 5829 5832 5835 5838 5841 5844 5847 5849 5852 5854 5857 5859 5861
5792 5790 5787 5785 5783 5782 5780 5779 5778 5778 5778 5778 5778 5779 5780 5781 5783 5785 5788 5790 5793 5795 5798 5800 5803 5806 5809 5812 5815 5818 5821 5825 5828 5831 5834 5837 5840 5843 5845 5848 5850 5852 5855
5793 5791 5789 5786 5784 5783 5781 5780 5779 5778 5777 5776 5776 5777 5777 5778 5779 5781 5783 5786 5788 5790 5793 5795 5797 5799 5802 5805 5808 5811 5814 5817 5820 5823 5826 5829 5832 5835 5838 5840 5843 5845 5848
5794 5792 5790 5788 5786 5784 5782 5780 5779 5778 5777 5775 5775 5774 5775 5775 5776 5778 5779 5781 5783 5785 5786 5788 5791 5793 5795 5797 5800 5803 5806 5809 5811 5814 5818 5820 5823 5826 5829 5832 5834 5837 5840
5795 5792 5790 5788 5786 5784 5783 5781 5779 5778 5777 5775 5774 5773 5773 5773 5774 5775 5776 5777 5778 5779 5781 5782 5784 5786 5788 5790 5792 5795 5797 5799 5802 5805 5807 5810 5813 5816 5819 5821 5824 5827 5830
5795 5792 5790 5788 5786 5785 5783 5781 5780 5778 5776 5775 5774 5772 5771 5771 5772 5772 5773 5773 5774 5775 5776 5776 5778 5779 5781 5782 5784 5786 5788 5790 5792 5794 5797 5799 5802 5805 5808 5811 5813 5816 5819
5794 5792 5790 5788 5786 5784 5782 5781 5779 5778 5776 5775 5773 5772 5771 5770 5770 5770 5770 5770 5770 5770 5771 5771 5772 5773 5774 5775 5776 5777 5778 5780 5782 5784 5786 5788 5791 5793 5796 5799 5801 5804 5807
5793 5790 5788 5787 5785 5783 5781 5780 5778 5777 5775 5774 5772 5771 5770 5769 5768 5767 5767 5767 5766 5766 5766 5766 5766 5767 5767 5767 5768 5768 5769 5770 5771 5773 5775 5776 5779 5781 5784 5786 5789 5791 5794
5791 5789 5787 5785 5783 5781 5780 5778 5777 5775 5774 5772 5771 5769 5768 5767 5766 5765 5764 5763 5763 5762 5761 5761 5761 5761 5761 5761 5761 5761 5761 5761 5762 5763 5764 5766 5768 5770 5771 5773 5775 5778 5780
5790 5787 5785 5783 5781 5779 5778 5776 5775 5773 5772 5770 5769 5767 5766 5765 5763 5762 5761 5760 5759 5758 5757 5756 5755 5755 5754 5754 5753 5753 5753 5753 5754 5755 5755 5755 5756 5758 5759 5761 5763 5765 5767
5788 5786 5783 5781 5779 5777 5775 5773 5772 5770 5769 5768 5766 5765 5763 5762 5760 5759 5758 5756 5755 5754 5752 5751 5750 5749 5748 5748 5747 5747 5746 5746 5746 5746 5746 5746 5746 5747 5748 5749 5751 5752 5754
5786 5784 5781 5779 5776 5774 5773 5771 5769 5767 5766 5764 5763 5761 5760 5758 5757 5755 5754 5752 5751 5749 5748 5746 5745 5744 5743 5742 5741 5740 5739 5739 5738 5737 5737 5737 5736 5737 5737 5738 5739 5741 5742
5784 5782 5779 5776 5774 5772 5770 5768 5766 5764 5762 5761 5759 5758 5756 5754 5753 5751 5749 5748 5746 5744 5743 5741 5740 5739 5737 5736 5735 5734 5733 5732 5731 5730 5730 5730 5728 5728 5728 5728 5729 5730 5731
5782 5779 5777 5774 5771 5769 5767 5765 5763 5761 5759 5757 5756 5754 5752 5750 5748 5746 5744 5743 5741 5739 5738 5736 5735 5733 5732 5730 5729 5728 5726 5725 5724 5723 5722 5722 5720 5720 5720 5719 5719 5719 5720